Tracking 19476 objects as of 16-Jan-2019
HD Live streaming from Space Station
objects crossing your sky now

TDRS 1

Track TDRS 1 now!
TDRS 1 is classified as:


NORAD ID: 13969
Int'l Code: 1983-026B
Perigee: 36,157.7 km
Apogee: 36,297.3 km
Inclination: 13.0 °
Period: 1,458.3 minutes
Semi major axis: 42598 km
RCS: 22.1577 m2 (large)
Launch date: April 4, 1983
Source: United States (US)
Launch site: AIR FORCE EASTERN TEST RANGE (AFETR)

Very limited use.
aabbcc
Your satellite tracking list
Your tracking list is empty




NASA's NSSDC Master Catalog

Two Line Element Set (TLE):
1 13969U 83026B   19015.74764142 -.00000180 +00000-0 +00000-0 0  9998
2 13969 012.9588 339.2692 0016381 211.4978 143.1508 00.98744242103600
Source of the keplerian elements: AFSPC